LUDI TANCE-4 01A

Last updated on Sat Aug 22 2026 00:03:01 GMT+0000 (Coordinated Universal Time)

1 57624U 23120A 26232.76355887 -.00000184 00000+0 00000+0 0 9998 2 57624 15.0647 192.3811 0003070 24.5054 116.7507 1.00269117 11190
UTC large
Height (km)
Speed (km/s)
/
Latitude / Longitude
Inclination (degrees)
Orbital Period (minutes)
Azimuth
Elevation
Range (km)
Doppler Factor

Next 0 passes for location: London (51.5072 / 0.1276)

No passes found over London.
LUDI TANCE-4 01A